Track SNAP-3 EDDIE now! 10-day predictions SNAP-3 EDDIE is classified as:
1 40972U 15058J 25199.54894583 .00015826 00000-0 62385-3 0 9992 2 40972 64.7567 130.4221 0083277 184.9689 175.0622 15.22548439 67711